Location: Grossmotten
(48.5500°N, 15.3833°E)
Time: 07:16:00
(UTC+00:00)

STARLINK-43 - Pass Details

Date: 15 November 2019
Orbit: 476 x 479 km, 53.0° (Epoch: 16 December)

Event Time Altitude Azimuth Distance (km) Brightness Sun altitude
Exits shadow 03:42:25 38° 157° (SSE) 749 4.4 -23.6°
Maximum altitude 03:42:44 39° 143° (SE) 737 4.5 -23.6°
Drops below altitude 10° 03:46:14 10° 74° (ENE) 1,661 7.0 -23.0°
Sets 03:48:29 0° 66° (ENE) 2,544 8.1 -22.6°
